sat.trackr.live / text

‹ back to catalog

STARLINK-2643

NORAD 48367 · 2021-038Q

PAYLOAD ACTIVE UNKNOWN

§ Identity

Operator
Country
US
Launch date
2021-05-04
Launch site
AFETR
Launch vehicle
Mass (kg)
RCS (m²)

Purposes: comms

External: N2YO · Heavens-Above · Gunter

§ Orbital elements

Epoch: 2026-09-19T19:46:31.402848Z

Period
94.01 min
Inclination
53.1607°
Eccentricity
0.0001300
Mean motion
15.31704002 rev/d
Perigee alt
469.8 km
Apogee alt
471.6 km
Semi-major
6,848.9 km
B*
1.4995e-5
RAAN
161.9291°
Arg perigee
99.6912°
Mean anomaly
260.4236°
Rev number
29,700

§ Raw data

STARLINK-26431 48367U 21038Q   26262.82397457  .00000100  00000+0  14995-4 0  99972 48367  53.1607 161.9291 0001300  99.6912 260.4236 15.31704002297005

JSON: /api/v1/satellites/48367 · /tle

For live sub-satellite position, see the globe view (requires WebGL).

§ Visibility from observer

Set your observer location to see the next 7 days of passes ≥ 10°. The values pass through the URL so the page stays shareable.

No JS? Fill the form by hand. The geolocation button needs JavaScript.